| time (UTC) | temp F | wind direction | speed MPH | gust MPH | rain 1hr in | rain 24hr in | rain mn in | humidity % | barometer mb |
| 20260509170008 | 76 | 121 | 1.0 | 4.0 | 0.00 | 1.05 | 0.02 | 83 | 1011.4 |
| 20260509164504 | 73 | 117 | 1.0 | 7.0 | 0.00 | 1.05 | 0.02 | 92 | 1011.5 |
| 20260509163107 | 72 | 205 | 2.0 | 5.0 | 0.00 | 1.05 | 0.02 | 94 | 1011.8 |
| 20260509161558 | 70 | 121 | 2.0 | 4.0 | 0.00 | 1.05 | 0.02 | 95 | 1011.5 |
| 20260509160052 | 68 | 153 | 2.0 | 6.0 | 0.00 | 1.05 | 0.02 | 96 | 1011.5 |
| 20260509154600 | 67 | 65 | 1.0 | 6.0 | 0.00 | 1.05 | 0.02 | 97 | 1011.3 |
| 20260509153047 | 66 | 165 | 1.0 | 5.0 | 0.00 | 1.05 | 0.02 | 97 | 1011.3 |
| 20260509151549 | 65 | 158 | 1.0 | 4.0 | 0.00 | 1.05 | 0.02 | 97 | 1011.5 |
| 20260509150045 | 64 | 238 | 2.0 | 4.0 | 0.00 | 1.05 | 0.02 | 97 | 1011.5 |
| 20260509144547 | 63 | 185 | 0.0 | 2.0 | 0.00 | 1.05 | 0.02 | 97 | 1011.5 |
| 20260509143048 | 61 | 207 | 0.0 | 3.0 | 0.00 | 1.05 | 0.02 | 97 | 1011.5 |
| 20260509141535 | 60 | 173 | 2.0 | 5.0 | 0.00 | 1.05 | 0.02 | 96 | 1011.3 |
| 20260509140030 | 60 | 177 | 1.0 | 3.0 | 0.00 | 1.05 | 0.02 | 96 | 1011.2 |
| 20260509134528 | 59 | 11 | 0.0 | 2.0 | 0.00 | 1.05 | 0.02 | 96 | 1011.0 |
| 20260509133028 | 58 | 67 | 0.0 | 2.0 | 0.00 | 1.05 | 0.02 | 96 | 1010.9 |
| 20260509131525 | 57 | 227 | 1.0 | 2.0 | 0.00 | 1.05 | 0.02 | 96 | 1011.0 |
| 20260509130025 | 56 | 355 | 0.0 | 0.0 | 0.00 | 1.05 | 0.02 | 96 | 1010.8 |
| 20260509124534 | 55 | 63 | 0.0 | 2.0 | 0.00 | 1.05 | 0.02 | 96 | 1010.5 |
| 20260509123023 | 54 | 104 | 0.0 | 0.0 | 0.00 | 1.05 | 0.02 | 96 | 1010.5 |
| 20260509121534 | 54 | 105 | 0.0 | 1.0 | 0.00 | 1.05 | 0.02 | 96 | 1010.4 |
| 20260509120022 | 53 | 105 | 0.0 | 2.0 | 0.00 | 1.05 | 0.02 | 96 | 1010.4 |
| 20260509114542 | 53 | 98 | 0.0 | 0.0 | 0.00 | 1.05 | 0.02 | 96 | 1010.3 |
| 20260509113020 | 53 | 98 | 0.0 | 2.0 | 0.00 | 1.05 | 0.02 | 95 | 1010.1 |
| 20260509111520 | 53 | 9 | 0.0 | 3.0 | 0.01 | 1.05 | 0.02 | 96 | 1010.0 |
| 20260509110021 | 53 | 39 | 0.0 | 0.0 | 0.01 | 1.05 | 0.02 | 96 | 1010.0 |
| 20260509104521 | 53 | 39 | 0.0 | 0.0 | 0.01 | 1.05 | 0.02 | 96 | 1010.0 |
| 20260509103018 | 53 | 39 | 0.0 | 0.0 | 0.01 | 1.05 | 0.02 | 96 | 1010.1 |
| 20260509101523 | 53 | 43 | 0.0 | 0.0 | 0.00 | 1.04 | 0.01 | 96 | 1010.0 |
| 20260509100017 | 53 | 44 | 0.0 | 0.0 | 0.00 | 1.04 | 0.01 | 95 | 1010.1 |
| 20260509094523 | 53 | 44 | 0.0 | 0.0 | 0.00 | 1.04 | 0.01 | 96 | 1010.2 |
| 20260509093014 | 54 | 44 | 0.0 | 0.0 | 0.00 | 1.04 | 0.01 | 95 | 1010.3 |
| 20260509091511 | 54 | 44 | 0.0 | 0.0 | 0.00 | 1.04 | 0.01 | 96 | 1010.2 |
| 20260509090029 | 54 | 44 | 0.0 | 0.0 | 0.00 | 1.04 | 0.01 | 95 | 1010.1 |
| 20260509084509 | 55 | 13 | 0.0 | 0.0 | 0.00 | 1.04 | 0.01 | 95 | 1010.2 |
| 20260509083021 | 55 | 11 | 0.0 | 0.0 | 0.00 | 1.04 | 0.01 | 95 | 1010.3 |
| 20260509081507 | 55 | 40 | 0.0 | 0.0 | 0.00 | 1.04 | 0.01 | 95 | 1010.4 |
| 20260509080010 | 55 | 40 | 0.0 | 0.0 | 0.00 | 1.04 | 0.01 | 95 | 1010.4 |
| 20260509074508 | 55 | 40 | 0.0 | 0.0 | 0.01 | 1.04 | 0.01 | 95 | 1010.6 |
| 20260509073005 | 56 | 40 | 0.0 | 0.0 | 0.01 | 1.04 | 0.01 | 95 | 1010.5 |
| 20260509071505 | 56 | 40 | 0.0 | 0.0 | 0.01 | 1.04 | 0.01 | 95 | 1010.6 |
| 20260509064558 | 57 | 29 | 0.0 | 0.0 | 0.00 | 1.03 | 0.00 | 95 | 1010.7 |
| 20260509064501 | 57 | 29 | 0.0 | 0.0 | 0.00 | 1.03 | 0.00 | 95 | 1010.8 |
| 20260509063118 | 57 | 29 | 0.0 | 0.0 | 0.00 | 1.03 | 0.00 | 95 | 1010.7 |
| 20260509061558 | 58 | 29 | 0.0 | 0.0 | 0.00 | 1.03 | 0.00 | 95 | 1010.8 |
| 20260509060056 | 58 | 29 | 0.0 | 0.0 | 0.00 | 1.03 | 0.00 | 95 | 1010.9 |
| 20260509054553 | 58 | 19 | 0.0 | 0.0 | 0.00 | 1.03 | 0.00 | 95 | 1010.7 |
| 20260509053052 | 59 | 9 | 1.0 | 2.0 | 0.00 | 1.03 | 0.00 | 95 | 1010.7 |
| 20260509051552 | 59 | 157 | 0.0 | 0.0 | 0.00 | 1.03 | 0.00 | 95 | 1010.8 |
| 20260509050100 | 59 | 157 | 0.0 | 0.0 | 0.00 | 1.03 | 0.00 | 95 | 1010.6 |
| 20260509044546 | 59 | 157 | 0.0 | 0.0 | 0.00 | 1.03 | 1.03 | 95 | 1010.7 |
| 20260509043048 | 59 | 157 | 0.0 | 0.0 | 0.00 | 1.03 | 1.03 | 95 | 1010.8 |
| 20260509041549 | 59 | 157 | 0.0 | 0.0 | 0.01 | 1.03 | 1.03 | 95 | 1010.6 |
| 20260509040046 | 59 | 157 | 0.0 | 0.0 | 0.01 | 1.03 | 1.03 | 95 | 1010.6 |
| 20260509034545 | 60 | 157 | 0.0 | 0.0 | 0.01 | 1.03 | 1.03 | 95 | 1010.6 |
| 20260509033102 | 60 | 157 | 0.0 | 0.0 | 0.01 | 1.03 | 1.03 | 95 | 1010.7 |
| 20260509031542 | 60 | 158 | 0.0 | 0.0 | 0.00 | 1.02 | 1.02 | 95 | 1010.4 |
| 20260509030047 | 61 | 104 | 0.0 | 0.0 | 0.00 | 1.02 | 1.02 | 95 | 1010.1 |
| 20260509024549 | 61 | 107 | 0.0 | 4.0 | 0.00 | 1.02 | 1.02 | 95 | 1009.6 |
| 20260509023042 | 61 | 223 | 2.0 | 4.0 | 0.00 | 1.02 | 1.02 | 95 | 1009.1 |
| 20260509021541 | 61 | 153 | 0.0 | 0.0 | 0.00 | 1.02 | 1.02 | 95 | 1008.8 |
| 20260509020040 | 62 | 157 | 0.0 | 0.0 | 0.00 | 1.02 | 1.02 | 95 | 1008.4 |
| 20260509014540 | 62 | 120 | 0.0 | 0.0 | 0.00 | 1.02 | 1.02 | 95 | 1008.3 |
| 20260509013046 | 62 | 161 | 0.0 | 0.0 | 0.00 | 1.02 | 1.02 | 95 | 1008.1 |
| 20260509011539 | 63 | 174 | 1.0 | 6.0 | 0.02 | 1.02 | 1.02 | 94 | 1007.8 |
| 20260509010039 | 63 | 180 | 1.0 | 5.0 | 0.05 | 1.02 | 1.02 | 94 | 1007.5 |
| 20260509004552 | 63 | 173 | 3.0 | 9.0 | 0.07 | 1.02 | 1.02 | 94 | 1007.0 |
| 20260509003041 | 62 | 161 | 4.0 | 7.0 | 0.10 | 1.02 | 1.02 | 94 | 1007.2 |
| 20260509001537 | 62 | 175 | 5.0 | 9.0 | 0.17 | 1.00 | 1.00 | 94 | 1007.7 |
| 20260509000043 | 62 | 222 | 1.0 | 4.0 | 0.56 | 0.97 | 0.97 | 94 | 1007.7 |
| 20260508234537 | 62 | 201 | 2.0 | 5.0 | 0.95 | 0.95 | 0.95 | 93 | 1007.3 |
| 20260508233036 | 62 | 169 | 2.0 | 8.0 | 0.91 | 0.91 | 0.91 | 92 | 1007.6 |
| 20260508231543 | 62 | 41 | 5.0 | 15.0 | 0.83 | 0.83 | 0.83 | 90 | 1007.5 |
| 20260508230031 | 64 | 360 | 20.0 | 41.0 | 0.37 | 0.37 | 0.37 | 84 | 1008.0 |
| 20260508224548 | 78 | 314 | 8.0 | 21.0 | 0.00 | 0.00 | 0.00 | 58 | 1005.8 |
| 20260508223027 | 79 | 148 | 3.0 | 7.0 | 0.00 | 0.00 | 0.00 | 55 | 1004.9 |
| 20260508221532 | 80 | 171 | 2.0 | 7.0 | 0.00 | 0.00 | 0.00 | 53 | 1006.0 |
| 20260508220031 | 82 | 161 | 4.0 | 9.0 | 0.00 | 0.00 | 0.00 | 51 | 1006.1 |
| 20260508214531 | 82 | 222 | 3.0 | 11.0 | 0.00 | 0.00 | 0.00 | 51 | 1006.2 |
| 20260508213031 | 83 | 169 | 3.0 | 9.0 | 0.00 | 0.00 | 0.00 | 51 | 1006.4 |
| 20260508211522 | 83 | 217 | 2.0 | 9.0 | 0.00 | 0.00 | 0.00 | 51 | 1006.9 |
| 20260508210016 | 83 | 180 | 5.0 | 9.0 | 0.00 | 0.00 | 0.00 | 50 | 1007.2 |
| 20260508204510 | 82 | 209 | 4.0 | 10.0 | 0.00 | 0.00 | 0.00 | 50 | 1007.3 |
| 20260508203011 | 82 | 263 | 3.0 | 10.0 | 0.00 | 0.00 | 0.00 | 51 | 1007.7 |
| 20260508201508 | 81 | 249 | 5.0 | 10.0 | 0.00 | 0.00 | 0.00 | 50 | 1007.9 |
| 20260508200112 | 81 | 222 | 3.0 | 12.0 | 0.00 | 0.00 | 0.00 | 51 | 1008.3 |
| 20260508194503 | 80 | 236 | 2.0 | 9.0 | 0.00 | 0.00 | 0.00 | 51 | 1008.5 |
| 20260508193106 | 79 | 171 | 4.0 | 10.0 | 0.00 | 0.00 | 0.00 | 52 | 1008.6 |
| 20260508193005 | 79 | 225 | 3.0 | 10.0 | 0.00 | 0.00 | 0.00 | 51 | 1008.7 |
| 20260508191558 | 79 | 173 | 5.0 | 15.0 | 0.00 | 0.00 | 0.00 | 49 | 1008.9 |
| 20260508190055 | 79 | 170 | 4.0 | 11.0 | 0.00 | 0.00 | 0.00 | 50 | 1009.0 |
| 20260508184554 | 78 | 257 | 5.0 | 14.0 | 0.00 | 0.00 | 0.00 | 49 | 1008.9 |
| 20260508183113 | 78 | 189 | 6.0 | 12.0 | 0.00 | 0.00 | 0.00 | 49 | 1009.0 |
| 20260508181608 | 77 | 192 | 6.0 | 14.0 | 0.00 | 0.00 | 0.00 | 50 | 1009.2 |
| 20260508180048 | 77 | 170 | 7.0 | 12.0 | 0.00 | 0.00 | 0.00 | 50 | 1009.6 |
| 20260508174544 | 77 | 240 | 5.0 | 13.0 | 0.00 | 0.00 | 0.00 | 54 | 1009.9 |
| 20260508173042 | 76 | 213 | 6.0 | 15.0 | 0.00 | 0.00 | 0.00 | 53 | 1010.4 |
| 20260508171548 | 76 | 197 | 6.0 | 14.0 | 0.00 | 0.00 | 0.00 | 54 | 1010.6 |